Weather History for Litchfield, MN

Change the Weather History Date:

Friday, November 9, 2012

  Actual Average Record
Temperature  
Mean Temperature 42 °F -  
Max Temperature 51 °F 42 °F 69 °F (1999)
Min Temperature 33 °F 26 °F 9 °F (1973)
Degree Days  
Heating Degree Days 23    
Moisture  
Dew Point 37 °F    
Average Humidity 86    
Maximum Humidity 100    
Minimum Humidity 66    
Precipitation  
Precipitation 0.00 in - - ()
Sea Level Pressure  
Sea Level Pressure 29.97 in    
Wind  
Wind Speed 11 mph (ENE)    
Max Wind Speed 18 mph    
Max Gust Speed 25 mph    
Visibility 9 miles    
Events      
Averages and records for this station are not official NWS values.
T = Trace of Precipitation, MM = Missing Value Source: NWS Daily Summary

Daily Weather History Graph

Daily Weather History Graph

Search for Another Location

Airport:

Trip Planner

Search our weather history database for the weather conditions in past years. The results will help you decide how hot, cold, wet, or windy it might be!

Date:

Astronomy

Nov. 09, 2012 Rise Set
Actual Time 7:08 AM CST 4:54 PM CST
Civil Twilight 6:37 AM CST 5:26 PM CST
Nautical Twilight 6:01 AM CST 6:01 PM CST
Astronomical Twilight 5:27 AM CST 6:35 PM CST
Moon 1:55 AM CST (11/9) 2:19 PM CST (11/9)
Length of Visible Light 10h 49m
Length of Day
9h 46m
Waning Crescent, 23% of the Moon is Illuminated
Nov 9
Waning Crescent
Nov 13
New
Nov 20
First Quarter
Nov 28
Full
Dec 6
Last Quarter

Hourly Weather History & Observations

Time (CST) Temp. Windchill Dew Point Humidity Pressure Visibility Wind Dir Wind Speed Gust Speed Precip Events Conditions
12:12 AM 35.6 °F 30.7 °F 33.8 °F 93% 30.02 in 7.0 mi NE 5.8 mph - N/A   Clear
12:33 AM 35.6 °F 29.9 °F 33.8 °F 93% 30.02 in 7.0 mi NE 6.9 mph - N/A   Clear
12:53 AM 35.6 °F 29.9 °F 33.8 °F 93% 30.02 in 7.0 mi NNE 6.9 mph - N/A   Clear
1:12 AM 35.6 °F 29.9 °F 33.8 °F 93% 30.02 in 7.0 mi NNE 6.9 mph - N/A   Clear
1:33 AM 33.8 °F 27.7 °F 33.8 °F 100% 30.01 in 7.0 mi NNE 6.9 mph - N/A   Clear
1:53 AM 33.8 °F 27.0 °F 33.8 °F 100% 30.01 in 7.0 mi NNE 8.1 mph - N/A   Clear
2:13 AM 33.8 °F 27.7 °F 33.8 °F 100% 30.02 in 7.0 mi NNE 6.9 mph - N/A   Clear
2:33 AM 33.8 °F 27.0 °F 33.8 °F 100% 30.01 in 7.0 mi NNE 8.1 mph - N/A   Clear
2:53 AM 35.6 °F 28.6 °F 33.8 °F 93% 30.01 in 7.0 mi NE 9.2 mph - N/A   Clear
3:13 AM 35.6 °F 28.6 °F 33.8 °F 93% 30.01 in 7.0 mi NNE 9.2 mph - N/A   Clear
3:33 AM 35.6 °F 28.6 °F 35.6 °F 100% 30.02 in 7.0 mi NNE 9.2 mph - N/A   Clear
3:53 AM 35.6 °F 28.6 °F 35.6 °F 100% 30.02 in 7.0 mi NNE 9.2 mph - N/A   Clear
4:13 AM 35.6 °F 27.5 °F 33.8 °F 93% 30.02 in 7.0 mi NNE 11.5 mph - N/A   Clear
4:33 AM 35.6 °F 28.0 °F 35.6 °F 100% 30.02 in 7.0 mi NE 10.4 mph - N/A   Clear
4:53 AM 35.6 °F 28.0 °F 33.8 °F 93% 30.02 in 7.0 mi NE 10.4 mph - N/A   Clear
5:13 AM 35.6 °F 28.0 °F 35.6 °F 100% 30.02 in 7.0 mi NE 10.4 mph - N/A   Clear
5:33 AM 35.6 °F 27.5 °F 35.6 °F 100% 30.02 in 7.0 mi NE 11.5 mph 16.1 mph N/A   Clear
5:53 AM 35.6 °F 28.0 °F 35.6 °F 100% 30.02 in 7.0 mi NNE 10.4 mph 17.3 mph N/A   Scattered Clouds
6:13 AM 35.6 °F 28.0 °F 35.6 °F 100% 30.02 in 7.0 mi NE 10.4 mph - N/A   Scattered Clouds
6:32 AM 35.6 °F 27.5 °F 35.6 °F 100% 30.02 in 7.0 mi NE 11.5 mph - N/A   Scattered Clouds
6:53 AM 35.6 °F 27.5 °F 35.6 °F 100% 30.02 in 7.0 mi NE 11.5 mph - N/A   Mostly Cloudy
7:13 AM 35.6 °F 28.0 °F 35.6 °F 100% 30.02 in 7.0 mi ENE 10.4 mph - N/A   Scattered Clouds
7:32 AM 35.6 °F 29.2 °F 35.6 °F 100% 30.03 in 5.0 mi ENE 8.1 mph - N/A   Scattered Clouds
7:53 AM 37.4 °F 30.8 °F 35.6 °F 93% 30.03 in 7.0 mi ENE 9.2 mph - N/A   Clear
8:12 AM 37.4 °F 30.3 °F 37.4 °F 100% 30.03 in 7.0 mi ENE 10.4 mph - N/A   Clear
8:33 AM 39.2 °F 32.0 °F 39.2 °F 100% 30.03 in 10.0 mi ENE 11.5 mph - N/A   Scattered Clouds
8:53 AM 39.2 °F 31.2 °F 39.2 °F 100% 30.03 in 10.0 mi ENE 13.8 mph 20.7 mph N/A   Scattered Clouds
9:12 AM 41.0 °F 33.5 °F 41.0 °F 100% 30.03 in 10.0 mi ENE 13.8 mph 20.7 mph N/A   Clear
9:33 AM 42.8 °F 35.8 °F 41.0 °F 93% 30.02 in 10.0 mi ENE 13.8 mph 21.9 mph N/A   Scattered Clouds
9:53 AM 42.8 °F 35.1 °F 39.2 °F 87% 30.02 in 10.0 mi East 16.1 mph 19.6 mph N/A   Clear
10:13 AM 44.6 °F 38.4 °F 39.2 °F 81% 30.02 in 10.0 mi ENE 12.7 mph 18.4 mph N/A   Scattered Clouds
10:33 AM 46.4 °F 39.8 °F 41.0 °F 81% 30.01 in 10.0 mi ENE 16.1 mph - N/A   Clear
10:52 AM 48.2 °F - 41.0 °F 76% 30.01 in 10.0 mi ENE 12.7 mph - N/A   Clear
11:13 AM 48.2 °F - 41.0 °F 76% 29.99 in 10.0 mi East 16.1 mph 20.7 mph N/A   Clear
11:33 AM 50.0 °F - 41.0 °F 71% 29.99 in 10.0 mi East 13.8 mph - N/A   Clear
11:52 AM 51.8 °F - 41.0 °F 67% 29.98 in 10.0 mi East 13.8 mph 18.4 mph N/A   Clear
12:13 PM 50.0 °F - 39.2 °F 66% 29.97 in 10.0 mi East 13.8 mph - N/A   Clear
12:33 PM 48.2 °F - 39.2 °F 71% 29.97 in 10.0 mi East 15.0 mph - N/A   Clear
12:52 PM 48.2 °F - 39.2 °F 71% 29.96 in 10.0 mi ENE 11.5 mph 17.3 mph N/A   Clear
1:13 PM 48.2 °F - 39.2 °F 71% 29.96 in 10.0 mi East 13.8 mph 17.3 mph N/A   Clear
1:33 PM 48.2 °F - 39.2 °F 71% 29.94 in 10.0 mi ENE 13.8 mph 19.6 mph N/A   Clear
1:53 PM 48.2 °F - 39.2 °F 71% 29.93 in 10.0 mi ENE 12.7 mph - N/A   Clear
2:13 PM 48.2 °F - 39.2 °F 71% 29.93 in 10.0 mi ENE 12.7 mph 19.6 mph N/A   Clear
2:33 PM 48.2 °F - 39.2 °F 71% 29.93 in 10.0 mi ENE 13.8 mph 18.4 mph N/A   Clear
2:53 PM 48.2 °F - 39.2 °F 71% 29.93 in 10.0 mi ENE 17.3 mph 20.7 mph N/A   Clear
3:13 PM 48.2 °F - 39.2 °F 71% 29.93 in 10.0 mi ENE 15.0 mph 19.6 mph N/A   Clear
3:33 PM 48.2 °F - 39.2 °F 71% 29.93 in 10.0 mi ENE 15.0 mph 18.4 mph N/A   Clear
3:53 PM 46.4 °F 41.5 °F 39.2 °F 76% 29.94 in 10.0 mi ENE 10.4 mph 17.3 mph N/A   Clear
4:13 PM 44.6 °F 38.1 °F 39.2 °F 81% 29.93 in 10.0 mi ENE 13.8 mph - N/A   Clear
4:33 PM 44.6 °F 38.8 °F 39.2 °F 81% 29.93 in 10.0 mi ENE 11.5 mph 18.4 mph N/A   Clear
4:53 PM 44.6 °F 37.8 °F 39.2 °F 81% 29.93 in 10.0 mi NE 15.0 mph 19.6 mph N/A   Clear
5:13 PM 42.8 °F 36.2 °F 39.2 °F 87% 29.92 in 10.0 mi ENE 12.7 mph - N/A   Clear
5:33 PM 42.8 °F 36.2 °F 39.2 °F 87% 29.93 in 10.0 mi ENE 12.7 mph - N/A   Clear
5:53 PM 42.8 °F 35.8 °F 39.2 °F 87% 29.93 in 10.0 mi ENE 13.8 mph 20.7 mph N/A   Mostly Cloudy
6:13 PM 42.8 °F 35.1 °F 37.4 °F 81% 29.92 in 10.0 mi ENE 16.1 mph - N/A   Mostly Cloudy
6:33 PM 42.8 °F 35.4 °F 37.4 °F 81% 29.91 in 10.0 mi ENE 15.0 mph 21.9 mph N/A   Scattered Clouds
6:53 PM 42.8 °F 35.8 °F 37.4 °F 81% 29.93 in 7.0 mi ENE 13.8 mph 19.6 mph N/A   Mostly Cloudy
7:13 PM 42.8 °F 35.8 °F 37.4 °F 81% 29.93 in 10.0 mi ENE 13.8 mph 21.9 mph N/A   Overcast
7:33 PM 42.8 °F 36.6 °F 37.4 °F 81% 29.95 in 7.0 mi ENE 11.5 mph - N/A   Overcast
7:53 PM 42.8 °F 35.8 °F 37.4 °F 81% 29.95 in 10.0 mi ENE 13.8 mph 18.4 mph N/A   Overcast
8:13 PM 42.8 °F 34.8 °F 37.4 °F 81% 29.94 in 10.0 mi East 17.3 mph 24.2 mph N/A   Overcast
8:33 PM 42.8 °F 34.5 °F 37.4 °F 81% 29.94 in 10.0 mi East 18.4 mph 24.2 mph N/A   Overcast
8:53 PM 42.8 °F 34.5 °F 37.4 °F 81% 29.93 in 10.0 mi East 18.4 mph 24.2 mph N/A   Overcast
9:13 PM 42.8 °F 34.8 °F 37.4 °F 81% 29.94 in 10.0 mi East 17.3 mph 25.3 mph N/A   Overcast
9:33 PM 42.8 °F 35.8 °F 37.4 °F 81% 29.94 in 10.0 mi East 13.8 mph 20.7 mph N/A   Overcast
9:53 PM 42.8 °F 36.2 °F 37.4 °F 81% 29.93 in 10.0 mi East 12.7 mph - N/A   Overcast
10:13 PM 42.8 °F 35.4 °F 37.4 °F 81% 29.92 in 10.0 mi East 15.0 mph 19.6 mph N/A   Overcast
10:33 PM 42.8 °F 35.4 °F 37.4 °F 81% 29.91 in 10.0 mi East 15.0 mph 20.7 mph N/A   Overcast
10:53 PM 42.8 °F 36.2 °F 37.4 °F 81% 29.90 in 10.0 mi East 12.7 mph 20.7 mph N/A   Overcast
11:13 PM 42.8 °F 35.4 °F 37.4 °F 81% 29.90 in 10.0 mi East 15.0 mph - N/A   Overcast
11:33 PM 42.8 °F 35.4 °F 37.4 °F 81% 29.88 in 10.0 mi East 15.0 mph 19.6 mph N/A   Overcast
11:53 PM 42.8 °F 36.2 °F 37.4 °F 81% 29.87 in 10.0 mi East 12.7 mph - N/A   Overcast